Time,TemperatureF,DewpointF,PressureIn,WindDirection,WindDirectionDegrees,WindSpeedMPH,WindSpeedGustMPH,Humidity,HourlyPrecipIn,Conditions,Clouds,dailyrainin,SoftwareType,DateUTC
2013-10-29 00:08:00,22.4,20.0,30.61,North,351,0.0,-999.0,91,-99.99,,,0.00,weatherlink.com 1.10,2013-10-29 04:08:00,
2013-10-29 00:23:00,22.3,20.0,30.60,North,351,0.0,-999.0,91,-99.99,,,0.00,weatherlink.com 1.10,2013-10-29 04:23:00,
2013-10-29 00:38:00,22.2,20.0,30.60,North,351,0.0,-999.0,91,-99.99,,,0.00,weatherlink.com 1.10,2013-10-29 04:38:00,
2013-10-29 00:53:00,21.9,20.0,30.60,North,350,0.0,-999.0,91,-99.99,,,0.00,weatherlink.com 1.10,2013-10-29 04:53:00,
2013-10-29 01:08:00,21.9,20.0,30.60,North,350,0.0,-999.0,91,-99.99,,,0.00,weatherlink.com 1.10,2013-10-29 05:08:00,
2013-10-29 01:23:00,21.7,20.0,30.60,North,350,0.0,-999.0,92,-99.99,,,0.00,weatherlink.com 1.10,2013-10-29 05:23:00,
2013-10-29 01:38:00,21.8,20.0,30.60,North,351,0.0,-999.0,92,-99.99,,,0.00,weatherlink.com 1.10,2013-10-29 05:38:00,
2013-10-29 01:53:00,21.2,19.0,30.60,North,351,0.0,-999.0,92,-99.99,,,0.00,weatherlink.com 1.10,2013-10-29 05:53:00,
2013-10-29 02:08:00,21.6,20.0,30.60,North,350,0.0,-999.0,92,-99.99,,,0.00,weatherlink.com 1.10,2013-10-29 06:08:00,
2013-10-29 02:23:00,21.7,20.0,30.60,North,351,0.0,-999.0,92,-99.99,,,0.00,weatherlink.com 1.10,2013-10-29 06:23:00,
2013-10-29 02:38:00,21.7,20.0,30.59,North,351,0.0,-999.0,92,-99.99,,,0.00,weatherlink.com 1.10,2013-10-29 06:38:00,
2013-10-29 02:53:00,21.7,20.0,30.60,North,351,0.0,-999.0,92,-99.99,,,0.00,weatherlink.com 1.10,2013-10-29 06:53:00,
2013-10-29 03:08:00,21.1,19.0,30.60,North,351,0.0,-999.0,92,-99.99,,,0.00,weatherlink.com 1.10,2013-10-29 07:08:00,
2013-10-29 03:23:00,21.2,19.0,30.60,North,351,0.0,-999.0,92,-99.99,,,0.00,weatherlink.com 1.10,2013-10-29 07:23:00,
2013-10-29 03:38:00,22.4,21.0,30.61,North,350,1.0,-999.0,92,-99.99,,,0.00,weatherlink.com 1.10,2013-10-29 07:38:00,
2013-10-29 03:53:00,23.6,22.0,30.61,NE,38,2.0,-999.0,93,-99.99,,,0.00,weatherlink.com 1.10,2013-10-29 07:53:00,
2013-10-29 04:08:00,24.4,22.0,30.60,NE,51,4.0,-999.0,92,-99.99,,,0.00,weatherlink.com 1.10,2013-10-29 08:08:00,
2013-10-29 04:23:00,23.9,22.0,30.59,NE,47,4.0,-999.0,91,-99.99,,,0.00,weatherlink.com 1.10,2013-10-29 08:23:00,
2013-10-29 04:53:00,22.1,20.0,30.60,NE,52,1.0,-999.0,90,-99.99,,,0.00,weatherlink.com 1.10,2013-10-29 08:53:00,
2013-10-29 05:08:00,22.5,20.0,30.59,NE,52,1.0,-999.0,91,-99.99,,,0.00,weatherlink.com 1.10,2013-10-29 09:08:00,
2013-10-29 05:23:00,23.3,21.0,30.59,NE,53,0.0,-999.0,91,-99.99,,,0.00,weatherlink.com 1.10,2013-10-29 09:23:00,
2013-10-29 05:38:00,22.9,21.0,30.59,NE,53,0.0,-999.0,91,-99.99,,,0.00,weatherlink.com 1.10,2013-10-29 09:38:00,
2013-10-29 05:53:00,22.1,20.0,30.59,NE,53,0.0,-999.0,90,-99.99,,,0.00,weatherlink.com 1.10,2013-10-29 09:53:00,
2013-10-29 06:08:00,22.3,20.0,30.60,NE,53,0.0,-999.0,91,-99.99,,,0.00,weatherlink.com 1.10,2013-10-29 10:08:00,
2013-10-29 06:23:00,21.4,19.0,30.61,NE,53,0.0,-999.0,90,-99.99,,,0.00,weatherlink.com 1.10,2013-10-29 10:23:00,
2013-10-29 06:38:00,21.2,19.0,30.62,NE,53,0.0,-999.0,91,-99.99,,,0.00,weatherlink.com 1.10,2013-10-29 10:38:00,
2013-10-29 06:53:00,21.8,20.0,30.62,NE,53,1.0,-999.0,91,-99.99,,,0.00,weatherlink.com 1.10,2013-10-29 10:53:00,
2013-10-29 07:08:00,22.9,21.0,30.62,NE,53,0.0,-999.0,92,-99.99,,,0.00,weatherlink.com 1.10,2013-10-29 11:08:00,
2013-10-29 07:23:00,23.7,22.0,30.62,NE,52,0.0,-999.0,92,-99.99,,,0.00,weatherlink.com 1.10,2013-10-29 11:23:00,
2013-10-29 07:38:00,24.1,22.0,30.61,NE,53,3.0,-999.0,92,-99.99,,,0.00,weatherlink.com 1.10,2013-10-29 11:38:00,
2013-10-29 07:53:00,24.0,22.0,30.61,NE,53,1.0,-999.0,92,-99.99,,,0.00,weatherlink.com 1.10,2013-10-29 11:53:00,
2013-10-29 08:08:00,23.9,22.0,30.61,NE,53,3.0,-999.0,91,-99.99,,,0.00,weatherlink.com 1.10,2013-10-29 12:08:00,
2013-10-29 08:23:00,23.9,22.0,30.61,NE,53,0.0,-999.0,91,-99.99,,,0.00,weatherlink.com 1.10,2013-10-29 12:23:00,
2013-10-29 08:38:00,23.8,22.0,30.62,NE,53,0.0,-999.0,91,-99.99,,,0.00,weatherlink.com 1.10,2013-10-29 12:38:00,
2013-10-29 08:53:00,24.5,23.0,30.61,NE,53,0.0,-999.0,92,-99.99,,,0.00,weatherlink.com 1.10,2013-10-29 12:53:00,
2013-10-29 09:08:00,25.3,23.0,30.61,NE,53,0.0,-999.0,92,-99.99,,,0.00,weatherlink.com 1.10,2013-10-29 13:08:00,
2013-10-29 09:23:00,26.3,24.0,30.62,NE,53,0.0,-999.0,92,-99.99,,,0.00,weatherlink.com 1.10,2013-10-29 13:23:00,
2013-10-29 09:38:00,27.1,25.0,30.62,NE,53,0.0,-999.0,92,-99.99,,,0.00,weatherlink.com 1.10,2013-10-29 13:38:00,
2013-10-29 09:53:00,27.7,26.0,30.62,NE,53,1.0,-999.0,91,-99.99,,,0.00,weatherlink.com 1.10,2013-10-29 13:53:00,
2013-10-29 10:08:00,28.5,26.0,30.62,NE,53,0.0,-999.0,90,-99.99,,,0.00,weatherlink.com 1.10,2013-10-29 14:08:00,
2013-10-29 10:23:00,29.2,26.0,30.61,NE,53,0.0,-999.0,89,-99.99,,,0.00,weatherlink.com 1.10,2013-10-29 14:23:00,
2013-10-29 10:38:00,30.6,28.0,30.61,ESE,103,0.0,-999.0,88,-99.99,,,0.01,weatherlink.com 1.10,2013-10-29 14:38:00,
2013-10-29 10:54:00,31.7,27.0,30.60,SE,126,0.0,-999.0,84,-99.99,,,0.01,weatherlink.com 1.10,2013-10-29 14:54:00,
2013-10-29 11:09:00,33.4,29.0,30.60,ESE,107,0.0,-999.0,83,-99.99,,,0.01,weatherlink.com 1.10,2013-10-29 15:09:00,
2013-10-29 11:24:00,34.4,30.0,30.60,SE,137,1.0,-999.0,83,-99.99,,,0.01,weatherlink.com 1.10,2013-10-29 15:24:00,
2013-10-29 11:39:00,34.8,29.0,30.58,SE,140,2.0,-999.0,80,-99.99,,,0.01,weatherlink.com 1.10,2013-10-29 15:39:00,
2013-10-29 11:54:00,35.2,28.0,30.58,SSE,163,2.0,-999.0,75,-99.99,,,0.01,weatherlink.com 1.10,2013-10-29 15:54:00,
2013-10-29 12:09:00,36.3,29.0,30.58,South,180,1.0,-999.0,75,-99.99,,,0.01,weatherlink.com 1.10,2013-10-29 16:09:00,
2013-10-29 12:24:00,35.3,27.0,30.58,SW,217,4.0,-999.0,72,-99.99,,,0.01,weatherlink.com 1.10,2013-10-29 16:24:00,
2013-10-29 12:39:00,36.3,27.0,30.57,SSW,205,4.0,-999.0,69,-99.99,,,0.01,weatherlink.com 1.10,2013-10-29 16:39:00,
2013-10-29 12:54:00,36.4,27.0,30.56,SSW,208,0.0,-999.0,68,-99.99,,,0.01,weatherlink.com 1.10,2013-10-29 16:54:00,
2013-10-29 13:09:00,36.9,27.0,30.56,SE,125,0.0,-999.0,67,-99.99,,,0.01,weatherlink.com 1.10,2013-10-29 17:09:00,
2013-10-29 13:24:00,36.8,26.0,30.55,ENE,76,0.0,-999.0,66,-99.99,,,0.01,weatherlink.com 1.10,2013-10-29 17:24:00,
2013-10-29 13:39:00,37.8,27.0,30.55,East,88,0.0,-999.0,66,-99.99,,,0.01,weatherlink.com 1.10,2013-10-29 17:39:00,
2013-10-29 14:24:00,36.8,26.0,30.52,SW,225,1.0,-999.0,65,-99.99,,,0.01,weatherlink.com 1.10,2013-10-29 18:24:00,
2013-10-29 14:39:00,37.2,27.0,30.52,SSW,202,6.0,-999.0,68,-99.99,,,0.01,weatherlink.com 1.10,2013-10-29 18:39:00,
2013-10-29 14:54:00,37.0,27.0,30.51,South,184,2.0,-999.0,68,-99.99,,,0.01,weatherlink.com 1.10,2013-10-29 18:54:00,
2013-10-29 15:09:00,37.0,27.0,30.51,SW,221,4.0,-999.0,67,-99.99,,,0.01,weatherlink.com 1.10,2013-10-29 19:09:00,
2013-10-29 15:24:00,37.0,28.0,30.50,SSW,204,3.0,-999.0,69,-99.99,,,0.01,weatherlink.com 1.10,2013-10-29 19:24:00,
2013-10-29 15:39:00,37.2,28.0,30.50,SW,220,1.0,-999.0,69,-99.99,,,0.01,weatherlink.com 1.10,2013-10-29 19:39:00,
2013-10-29 15:54:00,37.4,28.0,30.49,SW,236,2.0,-999.0,68,-99.99,,,0.01,weatherlink.com 1.10,2013-10-29 19:54:00,
2013-10-29 16:09:00,37.4,28.0,30.48,SSW,211,5.0,-999.0,68,-99.99,,,0.01,weatherlink.com 1.10,2013-10-29 20:09:00,
2013-10-29 16:24:00,37.1,28.0,30.48,SSW,200,3.0,-999.0,69,-99.99,,,0.01,weatherlink.com 1.10,2013-10-29 20:24:00,
2013-10-29 16:39:00,37.3,28.0,30.48,SSW,200,4.0,-999.0,70,-99.99,,,0.01,weatherlink.com 1.10,2013-10-29 20:39:00,
2013-10-29 16:54:00,37.1,29.0,30.48,SSW,198,1.0,-999.0,73,-99.99,,,0.01,weatherlink.com 1.10,2013-10-29 20:54:00,
2013-10-29 17:09:00,36.9,29.0,30.47,SSW,198,0.0,-999.0,72,-99.99,,,0.01,weatherlink.com 1.10,2013-10-29 21:09:00,
2013-10-29 17:40:00,36.0,29.0,30.45,SSW,198,0.0,-999.0,75,-99.99,,,0.01,weatherlink.com 1.10,2013-10-29 21:40:00,
2013-10-29 17:55:00,35.0,29.0,30.44,SSW,198,0.0,-999.0,78,-99.99,,,0.01,weatherlink.com 1.10,2013-10-29 21:55:00,
2013-10-29 18:10:00,34.4,29.0,30.44,SSW,198,0.0,-999.0,79,-99.99,,,0.01,weatherlink.com 1.10,2013-10-29 22:10:00,
2013-10-29 18:25:00,33.6,28.0,30.43,SSW,198,0.0,-999.0,80,-99.99,,,0.01,weatherlink.com 1.10,2013-10-29 22:25:00,
2013-10-29 18:40:00,32.9,28.0,30.43,SSW,198,0.0,-999.0,81,-99.99,,,0.01,weatherlink.com 1.10,2013-10-29 22:40:00,
2013-10-29 18:55:00,32.1,28.0,30.43,SSW,198,0.0,-999.0,83,-99.99,,,0.01,weatherlink.com 1.10,2013-10-29 22:55:00,
2013-10-29 19:10:00,31.4,27.0,30.43,SSW,198,0.0,-999.0,84,-99.99,,,0.01,weatherlink.com 1.10,2013-10-29 23:10:00,
2013-10-29 19:25:00,30.8,27.0,30.43,SSW,198,0.0,-999.0,85,-99.99,,,0.01,weatherlink.com 1.10,2013-10-29 23:25:00,
2013-10-29 19:40:00,30.5,27.0,30.43,SSW,198,0.0,-999.0,86,-99.99,,,0.01,weatherlink.com 1.10,2013-10-29 23:40:00,
2013-10-29 19:55:00,30.3,27.0,30.43,SSW,198,0.0,-999.0,88,-99.99,,,0.01,weatherlink.com 1.10,2013-10-29 23:55:00,
2013-10-29 20:10:00,30.3,27.0,30.42,SSW,198,0.0,-999.0,88,-99.99,,,0.01,weatherlink.com 1.10,2013-10-30 00:10:00,
2013-10-29 20:25:00,30.2,27.0,30.42,SSW,198,0.0,-999.0,89,-99.99,,,0.01,weatherlink.com 1.10,2013-10-30 00:25:00,
2013-10-29 20:40:00,30.5,28.0,30.41,SSW,198,0.0,-999.0,89,-99.99,,,0.01,weatherlink.com 1.10,2013-10-30 00:40:00,
2013-10-29 21:10:00,30.9,28.0,30.41,SSW,198,0.0,-999.0,90,-99.99,,,0.01,weatherlink.com 1.10,2013-10-30 01:10:00,
2013-10-29 21:25:00,31.0,29.0,30.40,SSW,198,0.0,-999.0,90,-99.99,,,0.01,weatherlink.com 1.10,2013-10-30 01:25:00,
2013-10-29 21:40:00,32.1,30.0,30.39,SSW,198,2.0,-999.0,90,-99.99,,,0.01,weatherlink.com 1.10,2013-10-30 01:40:00,
2013-10-29 21:55:00,33.1,30.0,30.39,SSW,198,0.0,-999.0,88,-99.99,,,0.01,weatherlink.com 1.10,2013-10-30 01:55:00,
2013-10-29 22:10:00,33.3,30.0,30.38,SSW,198,1.0,-999.0,87,-99.99,,,0.01,weatherlink.com 1.10,2013-10-30 02:10:00,
2013-10-29 22:25:00,33.4,30.0,30.38,SSW,198,0.0,-999.0,86,-99.99,,,0.01,weatherlink.com 1.10,2013-10-30 02:25:00,
2013-10-29 22:40:00,33.8,30.0,30.37,SSW,198,0.0,-999.0,86,-99.99,,,0.01,weatherlink.com 1.10,2013-10-30 02:40:00,
2013-10-29 22:55:00,33.9,30.0,30.37,SSW,198,2.0,-999.0,86,-99.99,,,0.01,weatherlink.com 1.10,2013-10-30 02:55:00,
2013-10-29 23:10:00,33.9,31.0,30.35,SSW,198,0.0,-999.0,87,-99.99,,,0.01,weatherlink.com 1.10,2013-10-30 03:10:00,
2013-10-29 23:25:00,33.7,31.0,30.35,SSW,198,0.0,-999.0,88,-99.99,,,0.01,weatherlink.com 1.10,2013-10-30 03:25:00,
2013-10-29 23:40:00,33.5,30.0,30.35,SSW,198,0.0,-999.0,88,-99.99,,,0.01,weatherlink.com 1.10,2013-10-30 03:40:00,
2013-10-29 23:55:00,33.4,31.0,30.34,SSW,198,0.0,-999.0,89,-99.99,,,0.01,weatherlink.com 1.10,2013-10-30 03:55:00,